sat.trackr.live / text

‹ back to catalog

STARLINK-3862

NORAD 52471 · 2022-049W

PAYLOAD ACTIVE UNKNOWN

§ Identity

Operator
Country
US
Launch date
2022-05-06
Launch site
AFETR
Launch vehicle
Mass (kg)
RCS (m²)

Purposes: comms

External: N2YO · Heavens-Above · Gunter

§ Orbital elements

Epoch: 2026-05-25T02:18:11.485728Z

Period
95.44 min
Inclination
53.2126°
Eccentricity
0.0001590
Mean motion
15.08843207 rev/d
Perigee alt
538.6 km
Apogee alt
540.8 km
Semi-major
6,917.9 km
B*
-6.7701e-5
RAAN
76.1295°
Arg perigee
89.9932°
Mean anomaly
270.1242°
Rev number
22,378

§ Raw data

STARLINK-38621 52471U 22049W   26145.09596627 -.00001365  00000+0 -67701-4 0  99992 52471  53.2126  76.1295 0001590  89.9932 270.1242 15.08843207223783

JSON: /api/v1/satellites/52471 · /tle

For live sub-satellite position, see the globe view (requires WebGL).

§ Visibility from observer

Set your observer location to see the next 7 days of passes ≥ 10°. The values pass through the URL so the page stays shareable.

No JS? Fill the form by hand. The geolocation button needs JavaScript.